Location: Aldenham
(51.6667°N, 0.3500°W)
Time: 03:52:16
(UTC+00:00)

A-11 Canister half - Pass Details

Date: 21 February 2026
Orbit: 1512 x 1687 km, 47.2° (Epoch: 7 March)

Event Time Altitude Azimuth Distance (km) Brightness Sun altitude
Rises 03:57:15 0° 286° (WNW) 4,860 - -29.3°
Reaches altitude 10° 04:02:07 10° 266° (W) 3,834 - -28.6°
Maximum altitude 04:07:07 15° 234° (SW) 3,370 - -27.8°
Drops below altitude 10° 04:12:03 10° 202° (SSW) 3,751 - -27.1°
Exits shadow 04:14:50 - 189° (S) 4,263 11.1 -26.7°
Sets 04:16:46 0° 182° (S) 4,698 11.4 -26.4°
